Location: ?????
(55.8833°N, 37.6500°E)
Time: 09:32:15
(UTC+00:00)

Cosmos 1633 Rocket - Pass Details

Date: 27 February 2020
Orbit: 608 x 622 km, 82.5° (Epoch: 27 March)

Event Time Altitude Azimuth Distance (km) Brightness Sun altitude
Rises 16:09:18 0° 205° (SSW) 2,861 6.8 -10.7°
Reaches altitude 10° 16:11:33 10° 210° (SSW) 1,962 6.0 -11.0°
Maximum altitude 16:15:48 52° 287° (WNW) 764 4.0 -11.6°
Drops below altitude 10° 16:20:05 10° 5° (N) 1,981 5.6 -12.2°
Sets 16:22:23 0° 10° (N) 2,893 6.4 -12.5°
